Hourly Data Report for July 19, 2004

SHERBROOKE A
QUEBEC

45°26'00.000" N
71°41'00.000" W
241.40 m
7028124
71610
YSC

Download Data

Hourly Data (July 2004)
Hourly Data Report for July 19, 2004
TIME
LST
Temp Definition
°C
Dew Point Definition
°C
Rel Hum Definition
%
Precip. Amount Definition
mm

Wind Dir Definition
10's deg

Wind Spd Definition
km/h
Visibility Definition
km
Stn Press Definition
kPa
Hmdx Definition


Wind Chill Definition


Weather Definition


00:00 17.1 16.4 96   4 6 15.0 98.49      
01:00 17.3 16.5 95   8 6 15.0 98.45      
02:00 17.0 16.4 96   8 6 15.0 98.41      
03:00 17.0 16.5 97   8 4 15.0 98.36      
04:00 16.8 16.3 97   10 7 12.9 98.32      
05:00 16.7 16.2 97   8 7 12.9 98.30      
06:00 16.8 16.3 97   9 7 11.3 98.30      
07:00 19.0 17.4 90     0 19.3 98.27     Mainly Clear
08:00 20.5 16.5 78   12 4 24.1 98.27 25   Mainly Clear
09:00 22.1 17.5 75   12 7 24.1 98.21 28   Mostly Cloudy
10:00 21.5 16.3 72   12 7 24.1 98.17 26   Mostly Cloudy
11:00 22.9 17.6 72     0 24.1 98.12 29   Mostly Cloudy
12:00 24.4 18.0 68   7 4 24.1 98.07 30   Cloudy
13:00 24.5 17.6 65   36 4 24.1 98.00 30   Cloudy
14:00 25.4 16.5 58   21 6 24.1 97.96 30   Cloudy
15:00 25.4 16.5 58   29 7 24.1 97.93 30   Mostly Cloudy
16:00 25.7 15.6 54   28 11 24.1 97.88 30   Mostly Cloudy
17:00 25.5 16.2 56   31 7 15.0 97.87 30    
18:00 24.6 17.2 63   29 7 15.0 97.90 30    
19:00 22.3 17.6 75     0 15.0 97.93 28    
20:00 20.1 17.4 84   27 4 12.9 97.98 26    
21:00 18.4 16.9 91   28 4 11.3 98.02      
22:00 17.9 16.8 93   18 4 6.4 98.05      
23:00 16.9 16.2 96     0 4.8 98.04      

Notes on Data Quality.

Legend

  • E = Estimated
  • M = Missing
  • NA = Not Available*
  • [empty] = Indicates an unobserved value
Date modified: